Location: Saint-Usage
(47.1052°N, 5.2587°E)
Time: 01:26:14
(UTC+01:00)

NOAA 19 - Pass Details

Date: 06 December 2021
Orbit: 841 x 860 km, 99.2° (Epoch: 17 January)

Event Time Altitude Azimuth Distance (km) Brightness Sun altitude
Rises 19:09:40 0° 162° (SSE) 3,384 8.3 -22.9°
Reaches altitude 10° 19:12:01 10° 162° (SSE) 2,454 7.5 -23.3°
Maximum altitude 19:17:28 88° 76° (ENE) 851 5.1 -24.2°
Drops below altitude 10° 19:22:59 10° 345° (NNW) 2,479 7.7 -25.1°
Sets 19:25:21 0° 346° (NNW) 3,422 8.5 -25.5°
